Regional Weather Roundup
Issued by NWS

Home | Current Version | Previous Version | Graphics & Text | Print | Product List | Glossary On
Versions: 1 2 3 4 5 6 7 8 9 10 11 12 13 14 15 16 17 18 19 20 21 22 23 24 25 26 27 28 29 30 31 32 33 34 35 36 37 38 39 40 41 42 43 44 45 46 47 48 49 50
000
ASUS43 KMKX 010321
RWRWI

WISCONSIN REGIONAL WEATHER ROUNDUP
NATIONAL WEATHER SERVICE MILWAUKEE/SULLIVAN WI
1000 PM CDT TUE SEP 30 2014

NOTE: "FAIR" INDICATES FEW OR NO CLOUDS BELOW 12,000 FEET WITH NO
SIGNIFICANT WEATHER AND/OR OBSTRUCTIONS TO VISIBILITY.

WIZ001-002-006>008-014>016-023>028-010400-
NORTHWEST WISCONSIN

CITY           SKY/WX    TMP DP  RH WIND       PRES   REMARKS
SUPERIOR ARPT  CLOUDY    46  44  91 E7        29.96F
ASHLAND        CLEAR     37  37 100 CALM      29.99F FOG
HAYWARD        PTCLDY    50  44  80 S8        29.96F
SIREN          PTCLDY    52  43  73 SE8       29.93S
CUMBERLAND     PTCLDY    46  41  81 SE8       29.95S
RICE LAKE      PTCLDY    49  43  80 SE13G20   29.97S
CHETEK         PTCLDY    47  44  87 E10G16    29.97S
LADYSMITH      PTCLDY    47  43  84 SE6       30.00F
EAU CLAIRE     CLEAR     47  41  80 SE8       29.96F
MENOMONIE      PTCLDY    48  44  84 E9        29.96F
NEW RICHMOND   MOCLDY    50  43  77 SE10G16   29.94S
OSCEOLA        MOCLDY    51  45  78 SE10      29.94F
$$

WIZ003>005-009-010-017-018-010400-
NORTH CENTRAL WISCONSIN

CITY           SKY/WX    TMP DP  RH WIND       PRES   REMARKS
MANITOWISH WTR CLEAR     45  44  96 CALM      30.00S
ARBOR VITAE    CLEAR     49  46  87 SE5       30.01S
WOODRUFF       CLEAR     49  46  87 SE5       30.01S
RHINELANDER    CLEAR     43  41  93 SE6       30.03S
EAGLE RIVER    CLEAR     46  41  85 SE7       30.02S
LAND O LAKES   CLEAR     45  43  92 SE3       30.03S
PHILLIPS       PTCLDY    46  43  87 SE7       29.99F
TOMAHAWK       PTCLDY    42  40  92 CALM      30.04R
MEDFORD        CLOUDY    44  41  92 SE9G16    30.01F
MERRILL        CLOUDY    44  42  94 S8        30.05R
$$

WIZ029-030-035-036-043>047-010400-
CENTRAL WISCONSIN

CITY           SKY/WX    TMP DP  RH WIND       PRES   REMARKS
WAUSAU         CLOUDY    45  42  89 S10       30.05R
MOSINEE        CLOUDY    43  43 100 SE7       30.06R
MARSHFIELD     CLOUDY    47  42  83 SE9       30.03S
STEVENS POINT  CLOUDY    44  41  89 SE6       30.06S
WAUPACA        CLOUDY    49  45  87 E5        30.07S
WAUTOMA        NOT AVBL
WISC RAPIDS    CLOUDY    47  42  83 SE7       30.06S
CAMP DOUGLAS   CLOUDY    47  47 100 E9        30.03F
$$

WIZ011>013-019>022-031-037>040-048>050-010400-
NORTHEAST WISCONSIN

CITY           SKY/WX    TMP DP  RH WIND       PRES   REMARKS
ANTIGO         CLOUDY    42  42  98 SE7       30.05S
SHAWANO        CLOUDY    49  44  81 SE3       30.07S
OCONTO         CLOUDY    49  46  90 SE6       30.07R
STURGEON BAY   NOT AVBL
GREEN BAY      CLOUDY    48  45  89 E6        30.07S
MANITOWOC      NOT AVBL
APPLETON       CLOUDY    46  43  87 VRB6      30.07R
CLINTONVILLE   CLOUDY    46  43  87 SE6       30.07R
OSHKOSH        CLOUDY    48  45  89 SE7       30.07R
$$

WIZ032>034-041-042-053>061-010400-
SOUTHWEST WISCONSIN

CITY           SKY/WX    TMP DP  RH WIND       PRES   REMARKS
LA CROSSE      CLOUDY    50  43  77 SE8       30.00S
SPARTA         CLOUDY    46  41  80 E13G18    30.02F
VIROQUA        MOCLDY    45  45  99 E6        30.00S
BOSCOBEL       PTCLDY    47  43  86 E5        30.02F
PRAIRIE DU CHI PTCLDY    48  42  79 E6        30.00S
PLATTEVILLE    PTCLDY    46  43  89 E10       30.01S
$$

WIZ056-057-062-063-064-067-068-010400-
SOUTH CENTRAL WISCONSIN

CITY           SKY/WX    TMP DP  RH WIND       PRES   REMARKS
REEDSBURG      PTCLDY    43  42  93 CALM      30.03F
BARABOO/DELLS  PTCLDY    41  38  91 E3        30.03F
LONE ROCK      PTCLDY    48  41  76 SE3       30.03S
MINERAL POINT  MOCLDY    45  43  93 E7        30.01S
MADISON        MOCLDY    44  41  89 CALM      30.04S
MIDDLETON      PTCLDY    41  41  97 CALM      30.04R
WATERTOWN      CLOUDY    48  45  89 NE8       30.05S
MONROE         PTCLDY    45  43  93 E7        30.02S
JANESVILLE     CLOUDY    52  45  76 E8        30.03F
$$

WIZ051-052-058>065-066-070>072-010400-
SOUTHEAST WISCONSIN

CITY           SKY/WX    TMP DP  RH WIND       PRES   REMARKS
MILWAUKEE      DRIZZLE   51  49  92 N6        30.05R
WAUKESHA       CLOUDY    45  45 100 N3        30.06S FOG
MILWAUKEE/TIMM CLOUDY    46  45  93 NW5       30.06S FOG
RACINE         CLOUDY    54  48  80 E6        30.06R
BURLINGTON     CLOUDY    48  47  99 N3        30.04F
KENOSHA        CLOUDY    52  50  93 N3        30.05R
FOND DU LAC    CLOUDY    48  43  82 E6        30.07R
SHEBOYGAN      CLOUDY    48  46  93 N5        30.06  FOG
WEST BEND      CLOUDY    46  43  87 CALM      30.05F FOG
JUNEAU         CLOUDY    47  44  87 E6        30.07S
$$

LSZ147-162-010400-
LAKE SUPERIOR

STATION/POSITION TIME  TEMP    WIND        PRES    WAVE
                       AIR SEA DIR/SP/G            HT/PER
                 (UTC) (F)     (DEG/KT/KT) (MB)    (FT/S)
W MID LAKE BUOY  0250   47 50  110/ 14/ 16 1016.8F   3/ 5
DEVILS ISLAND    0300   49      90/ 12/ 14 1016.4F
SAXON HARBOR     0200   41        CALM     1015.6
$$

LMZ867-665-643>646-010400-
LAKE MICHIGAN

STATION/POSITION TIME  TEMP    WIND        PRES    WAVE
                       AIR SEA DIR/SP/G            HT/PER
                 (UTC) (F)     (DEG/KT/KT) (MB)    (FT/S)
CHAMBERS ISLAND  0200   51     100/  5/  8 1017.9S
S GREEN BAY BUOY 0300   50                 1019.5R
N MID LAKE BUOY  0250   55 58  100/ 14/ 16 1017.8F   1/ 3
NORTHPORT PIER   0200   52      40/  3/  4 1017.9S
KEWAUNEE LAKESHO 0300   51     330/  1/  2 1017.2R
SHEBOYGAN LAKESH 0300   50 54   10/ 11/ 11 1018.4F
PORT WASHINGTON  0200   49     330/  4/ 10 1018.3R
ATWATER BUOY     0300   52      10/  8/ 12 1018.4S
MILWAUKEE LAKESH 0300   51     350/  7/ 10   N/A
S MID LAKE BUOY  0250   56 61   60/  8/ 10 1017.4R   3/ 6
KENOSHA   LAKESH 0300   55     110/  6/ 13 1017.3R
$$

TC  - TEMPERATURE IN CELSIUS
VSB - VISIBILITY IN STATUTE MILES
WCI - WIND CHILL INDEX
HX  - HEAT INDEX




USA.gov is the U.S. government's official web portal to all federal, state and local government web resources and services.